KAZEOSAT 2

Last updated on Thu Jul 03 2025 00:02:30 GMT+0000 (Coordinated Universal Time)

1 40010U 14033A 25183.55896040 .00000437 00000+0 57350-4 0 9999 2 40010 97.5720 36.1448 0009672 42.5536 317.6427 14.84785331597063
UTC large
Height (km)
Speed (km/s)
/
Latitude / Longitude
Inclination (degrees)
Orbital Period (minutes)
Azimuth
Elevation
Range (km)
Doppler Factor

Next 0 passes for location: London (51.5072 / 0.1276)

Sorry there are no passes over London.